COSMOS 1275 DEB

Satellite information

Favourite Embed

Satellite Type and Status

DEBRISIN ORBIT

Key statistics

Satellite COSMOS 1275 DEB at a glance.

Uptime

16104

Days in orbit

Revolutions

≈ 14.2

Per day

Orbit

LEO

Low Earth Orbit

Inclination

82.8

Latest

Satellite identification and parameters

Extended collection of information and parameters for COSMOS 1275 DEB.

Object identification

Identified? True

Debris? True

Object name: COSMOS 1275 DEB

International designator: 1981-053LW

Object number (NORAD): 18601

Object ID (CCSDS): 18601

Country: COMMONWEALTH OF INDEPENDENT STATES (CIS)

Current information (Y/N): Y

RCS size: SMALL

Orbital parameters

Period: 101.398 minutes

Inclination: 82.7842 deg

SMA: 7203.007 km

Apoapsis: 864.2 km

Periapsis: 785.543 km

RAAN: 299.6309 deg

Eccentricy: 0.00546

Argument of periapsis: 97.8812 deg

Mean anomaly: 318.7004 deg

Mean motion: 14.20142874 rev/day

Mean motion (dot): 0.00002668 rev/day2

B* drag term: 0.0012255 1/REarth

Two-line elements (TLE)

Creation date: July 6, 2025, 6:05 p.m.

Reference frame: TEME

Reference center: EARTH

Epoch: July 6, 2025, 8:08 a.m. UTC

TLE line 0: 0 COSMOS 1275 DEB

TLE line 1: 1 18601U 81053LW 25187.33907910 .00002668 00000-0 12255-2 0 9997

TLE line 2: 2 18601 82.7842 299.6309 0054600 97.8812 318.7004 14.20142874932018

Live tracking on map

Real-time ground track for satellite COSMOS 1275 DEB.

In-orbit conjunctions

A list of the most updated potential collisions computed for object COSMOS 1275 DEB.

Target Orbit TCA Probability of collision Miss distance Type
COSMOS 158 LEO 2025-02-15 10:54:51 0.0002621021 138.0 (m) PAYLOAD
NOAA 16 DEB SSO 2024-09-27 14:56:14 0.000132028 102.0 (m) DEBRIS

Associated space launch

Navigation satellite providing location information for the Tsiklon-B navigation system

COSMOS 1275 DEB was lifted into orbit during the mission ‘Kosmos-3M | Parus 27’, on board a Kosmos-3M space rocket.

The launch took place on June 4, 1981, 3:41 p.m. from 132/2.

For more information about the launch, click the button.

Launch to space Kosmos-3M | Parus 27
Kosmos-3M | Parus 27

Agency: N/A

Status: Launch Successful

Launch date: June 4, 1981, 3:41 p.m. UTC

Rocket: Kosmos-3M

Launch pad: 132/2

Location: Plesetsk Cosmodrome, Russian Federation

...

Latest news about this satellite

There are no fresh news available about this satellite. Check back as we update our databases every day.


Newsletter sign-up

Weekly statistics, charts and insights to help you stay on top of the space industry.